User: anonymous   Login
Location: Wildcat Hills Observatory
(41.6350°N, 103.6812°W)
Time: 17:19:23
(UTC-07:00)
Language:

Cosmos 1634 Rocket - Orbit

View from above orbital plane
View from above orbital plane
View from above satellite
View from above satellite

Ground track
Ground track

The orbit data is extracted from the following two-line orbital elements,

1 15598U 85022B   16336.90799650 +.00000057 +00000-0 +43185-4 0  9996
2 15598 082.9387 253.7269 0021108 303.6483 100.4096 13.76557687593080
Epoch (UTC): 01 December 2016 21:47:30
Eccentricity: 0.0021108
inclination: 82.9387°
perigee height: 960 km
apogee height: 991 km
right ascension of ascending node: 253.7269°
argument of perigee: 303.6483°
revolutions per day: 13.76557687
mean anomaly at epoch: 100.4096°
orbit number at epoch: 59308

The dashed part of the orbit path shows where the satellite is in the earth's shadow,  

DLR